Hourly Weather Allan

Today, 27 February, Saturday

Time Temperature Precipitation Wind Pressure Humidity
00:00 -26°C° 0 mm 3 mps 712 mmHg 96%
01:00 -26°C° 0 mm 2 mps 713 mmHg 96%
02:00 -26°C° 0 mm 2 mps 713 mmHg 95%
03:00 -27°C° 0 mm 2 mps 713 mmHg 96%
04:00 -27°C° 0 mm 2 mps 713 mmHg 96%
05:00 -28°C° 0 mm 2 mps 713 mmHg 95%
06:00 -27°C° 0 mm 1 mps 714 mmHg 95%
07:00 -27°C° 0 mm 1 mps 714 mmHg 95%
08:00 -26°C° 0 mm 0 mps 714 mmHg 95%
09:00 -25°C° 0 mm 1 mps 715 mmHg 93%
10:00 -23°C° 0 mm 1 mps 715 mmHg 92%
11:00 -25°C° 0 mm 2 mps 715 mmHg 91%
12:00 -24°C° 0 mm 2 mps 715 mmHg 92%
13:00 -23°C° 0 mm 2 mps 715 mmHg 92%
14:00 -23°C° 0 mm 3 mps 715 mmHg 92%
15:00 -23°C° 0 mm 3 mps 714 mmHg 93%
16:00 -23°C° 0 mm 3 mps 714 mmHg 94%
17:00 -23°C° 0 mm 3 mps 713 mmHg 95%
18:00 -24°C° 0 mm 3 mps 713 mmHg 96%
19:00 -24°C° 0 mm 3 mps 714 mmHg 96%
20:00 -24°C° 0 mm 3 mps 714 mmHg 97%
21:00 -25°C° 0 mm 3 mps 714 mmHg 97%
22:00 -25°C° 0 mm 3 mps 714 mmHg 97%
23:00 -25°C° 0 mm 3 mps 713 mmHg 97%

Tomorrow, 28 February, Sunday

Time Temperature Precipitation Wind Pressure Humidity
00:00 -25°C° 0 mm 3 mps 713 mmHg 97%
01:00 -24°C° 0 mm 2 mps 713 mmHg 97%
02:00 -24°C° 0 mm 2 mps 713 mmHg 97%
03:00 -23°C° 0 mm 2 mps 713 mmHg 96%
04:00 -21°C° 0 mm 2 mps 712 mmHg 94%
05:00 -20°C° 0 mm 2 mps 712 mmHg 92%
06:00 -20°C° 0 mm 2 mps 712 mmHg 92%
07:00 -19°C° 0 mm 2 mps 712 mmHg 91%
08:00 -18°C° 0 mm 2 mps 712 mmHg 91%
09:00 -18°C° 0.2 mm 3 mps 712 mmHg 92%
10:00 -19°C° 0.2 mm 4 mps 712 mmHg 93%
11:00 -19°C° 0.2 mm 5 mps 712 mmHg 94%
12:00 -18°C° 0 mm 4 mps 713 mmHg 93%
13:00 -18°C° 0 mm 4 mps 714 mmHg 91%
14:00 -18°C° 0 mm 4 mps 715 mmHg 90%
15:00 -20°C° 0 mm 4 mps 715 mmHg 92%
16:00 -22°C° 0 mm 4 mps 716 mmHg 93%
17:00 -23°C° 0 mm 3 mps 717 mmHg 94%
18:00 -24°C° 0 mm 3 mps 717 mmHg 93%
19:00 -26°C° 0 mm 3 mps 718 mmHg 91%
20:00 -27°C° 0 mm 2 mps 718 mmHg 90%
21:00 -29°C° 0 mm 3 mps 718 mmHg 88%
22:00 -29°C° 0 mm 3 mps 718 mmHg 87%
23:00 -30°C° 0 mm 3 mps 719 mmHg 86%

Day after tomorrow, 1 March, Monday

Time Temperature Precipitation Wind Pressure Humidity
00:00 -27°C° 0 mm 3 mps 718 mmHg 89%
01:00 -27°C° 0 mm 4 mps 718 mmHg 91%
02:00 -26°C° 0 mm 4 mps 718 mmHg 94%
03:00 -26°C° 0 mm 5 mps 717 mmHg 92%
04:00 -24°C° 0 mm 6 mps 717 mmHg 91%
05:00 -23°C° 0 mm 6 mps 716 mmHg 90%
06:00 -22°C° 0 mm 6 mps 715 mmHg 90%
07:00 -22°C° 0 mm 6 mps 714 mmHg 90%
08:00 -21°C° 0 mm 7 mps 713 mmHg 90%
09:00 -18°C° 0 mm 6 mps 712 mmHg 90%
10:00 -16°C° 0 mm 6 mps 711 mmHg 90%
11:00 -14°C° 0 mm 6 mps 710 mmHg 90%
12:00 -11°C° 0 mm 6 mps 710 mmHg 89%
13:00 -8°C° 0 mm 6 mps 709 mmHg 88%
14:00 -5°C° 0 mm 6 mps 708 mmHg 87%
15:00 -4°C° 0 mm 5 mps 707 mmHg 87%
16:00 -4°C° 0 mm 5 mps 706 mmHg 87%
17:00 -2°C° 0 mm 4 mps 705 mmHg 87%
18:00 -2°C° 0 mm 5 mps 705 mmHg 86%
19:00 -2°C° 0 mm 5 mps 704 mmHg 86%
20:00 -4°C° 0 mm 5 mps 703 mmHg 86%
21:00 -4°C° 0 mm 5 mps 703 mmHg 85%
22:00 -4°C° 0 mm 5 mps 702 mmHg 85%
23:00 -4°C° 0 mm 5 mps 702 mmHg 85%

2 March, Tuesday

Time Temperature Precipitation Wind Pressure Humidity
00:00 -3°C° 0 mm 6 mps 702 mmHg 84%
01:00 -3°C° 0 mm 6 mps 702 mmHg 83%
02:00 -2°C° 0 mm 6 mps 702 mmHg 82%
03:00 -3°C° 0 mm 6 mps 702 mmHg 82%
04:00 -4°C° 0 mm 5 mps 702 mmHg 83%
05:00 -5°C° 0 mm 5 mps 702 mmHg 83%
06:00 -4°C° 0 mm 4 mps 703 mmHg 85%
07:00 -5°C° 0 mm 4 mps 703 mmHg 87%
08:00 -7°C° 0 mm 4 mps 704 mmHg 89%
09:00 -5°C° 0 mm 4 mps 705 mmHg 90%
10:00 -5°C° 0 mm 4 mps 705 mmHg 91%
11:00 -4°C° 0 mm 4 mps 706 mmHg 92%
12:00 -4°C° 0 mm 3 mps 706 mmHg 92%
13:00 -2°C° 0 mm 3 mps 706 mmHg 91%
14:00 -2°C° 0 mm 2 mps 706 mmHg 91%
15:00 -3°C° 0 mm 2 mps 706 mmHg 91%
16:00 -4°C° 0 mm 2 mps 706 mmHg 92%
17:00 -5°C° 0 mm 2 mps 705 mmHg 93%
18:00 -6°C° 0 mm 2 mps 705 mmHg 92%
19:00 -7°C° 0 mm 2 mps 705 mmHg 91%
20:00 -8°C° 0 mm 2 mps 705 mmHg 91%
21:00 -8°C° 0 mm 2 mps 705 mmHg 89%
22:00 -9°C° 0 mm 3 mps 705 mmHg 88%
23:00 -8°C° 0 mm 3 mps 705 mmHg 87%

3 March, Wednesday

Time Temperature Precipitation Wind Pressure Humidity
00:00 -9°C° 0 mm 3 mps 705 mmHg 88%
01:00 -9°C° 0 mm 3 mps 705 mmHg 90%
02:00 -9°C° 0 mm 3 mps 704 mmHg 91%
03:00 -9°C° 0 mm 3 mps 704 mmHg 91%
04:00 -9°C° 0 mm 3 mps 705 mmHg 91%
05:00 -10°C° 0 mm 3 mps 705 mmHg 92%
06:00 -10°C° 0 mm 3 mps 705 mmHg 91%
07:00 -9°C° 0 mm 2 mps 705 mmHg 91%
08:00 -9°C° 0 mm 2 mps 706 mmHg 91%
09:00 -7°C° 0 mm 2 mps 706 mmHg 90%
10:00 -6°C° 0 mm 2 mps 706 mmHg 90%
11:00 -3°C° 0 mm 1 mps 707 mmHg 89%
12:00 -2°C° 0 mm 1 mps 707 mmHg 89%
13:00 -2°C° 0 mm 1 mps 707 mmHg 88%
14:00 -1°C° 0 mm 1 mps 708 mmHg 88%
15:00 -2°C° 0 mm 1 mps 708 mmHg 90%
16:00 -3°C° 0 mm 1 mps 708 mmHg 91%
17:00 -4°C° 0 mm 1 mps 708 mmHg 93%
18:00 -6°C° 0 mm 1 mps 709 mmHg 93%
19:00 -7°C° 0 mm 1 mps 709 mmHg 94%
20:00 -8°C° 0 mm 1 mps 710 mmHg 94%
21:00 -8°C° 0 mm 1 mps 711 mmHg 93%
22:00 -8°C° 0 mm 1 mps 711 mmHg 93%
23:00 -9°C° 0 mm 1 mps 712 mmHg 92%

4 March, Thursday

Time Temperature Precipitation Wind Pressure Humidity
00:00 -9°C° 0 mm 1 mps 712 mmHg 91%
01:00 -9°C° 0 mm 1 mps 713 mmHg 91%
02:00 -9°C° 0 mm 1 mps 713 mmHg 90%
03:00 -9°C° 0 mm 1 mps 713 mmHg 89%
04:00 -9°C° 0 mm 1 mps 714 mmHg 88%
05:00 -9°C° 0 mm 1 mps 714 mmHg 87%
06:00 -9°C° 0 mm 1 mps 715 mmHg 86%
07:00 -8°C° 0 mm 1 mps 716 mmHg 86%
08:00 -8°C° 0 mm 1 mps 716 mmHg 85%
09:00 -6°C° 0 mm 1 mps 717 mmHg 86%
10:00 -6°C° 0 mm 2 mps 717 mmHg 86%
11:00 -4°C° 0 mm 2 mps 718 mmHg 87%
12:00 -4°C° 0 mm 2 mps 718 mmHg 87%
13:00 -3°C° 0 mm 2 mps 718 mmHg 88%
14:00 -2°C° 0 mm 2 mps 718 mmHg 88%
15:00 -3°C° 0 mm 2 mps 718 mmHg 89%
16:00 -5°C° 0 mm 3 mps 718 mmHg 89%
17:00 -5°C° 0 mm 3 mps 718 mmHg 90%
18:00 -5°C° 0 mm 3 mps 718 mmHg 89%
19:00 -7°C° 0 mm 4 mps 718 mmHg 89%
20:00 -7°C° 0 mm 4 mps 719 mmHg 89%
21:00 -7°C° 0 mm 4 mps 719 mmHg 88%
22:00 -5°C° 0 mm 4 mps 719 mmHg 87%
23:00 -6°C° 0 mm 5 mps 718 mmHg 86%
Show more